[[{"header":{"parameterUnit":"m.s-1","parameterCategory":1,"la1":30.2991,"la2":30.254,"lo1":-89.0895,"lo2":-89.0444,"dy":0.0017,"dx":0.0017,"nx":28,"ny":28,"refTime":"2025-06-15T09:00:00:Z","depth":0,"parameterNumber":2,"parameterNumberName":"U-component_of_WINDS"},"data":[0,0,0,0,0,0,0,0,0,0,0,0,0,0,0,0,0,0,0,0,0,0,0,0,0,0,0,0,0,0,0,0,0,0,0,0,0,0,0,0,0,0,0,0,0,0,0,0,0,0,0,0,0,0,0,0,0,0,-0.9428,-0.9427,0,-0.9324,-0.9322,-0.9321,-0.9212,-0.9211,-0.9209,-0.9208,-0.9102,-0.91,-0.9099,0,0,0,0,0,0,0,0,0,0,0,0,0,-0.9534,-0.9533,-0.9428,-0.9427,-0.9426,-0.9324,-0.9322,-0.9321,-0.9213,-0.9211,-0.9209,-0.9207,-0.9102,-0.91,-0.9099,0,0,0,0,0,0,0,0,0,0,0,0,0,-0.9465,-0.9532,-0.9429,-0.9359,-0.9352,-0.9324,-0.9322,-0.932,-0.9213,-0.9211,-0.9209,-0.9206,-0.9103,-0.9101,-0.9098,-0.913,0,0,-0.9092,-0.9091,0,0,0,0,0,0,0,0,-0.9469,-0.9461,-0.9371,-0.9364,-0.9356,-0.9279,-0.932,-0.9257,-0.9214,-0.9266,-0.9208,-0.9205,-0.9162,-0.9155,-0.914,-0.9125,-0.9121,-0.9092,-0.909,-0.9089,-0.9089,0,0,0,0,0,0,0,-0.9474,-0.9465,-0.9387,-0.937,-0.9361,-0.9333,-0.9321,-0.9308,-0.9228,-0.9261,-0.9253,-0.9242,-0.9158,-0.9143,-0.9137,-0.9119,-0.9092,-0.909,-0.9088,-0.9088,-0.9123,-0.9125,0,0,0,0,0,0,-0.9489,-0.947,-0.939,-0.9384,-0.9408,-0.9333,-0.932,-0.9306,-0.9228,-0.9214,-0.9244,-0.9237,-0.9148,-0.914,-0.9133,-0.9165,-0.9089,-0.9087,-0.9086,-0.9121,-0.9124,-0.9126,0,0,0,0,0,0,-0.9492,-0.9483,-0.9394,-0.9424,-0.9411,-0.9334,-0.9319,-0.9305,-0.929,-0.9215,-0.92,-0.9244,-0.9146,-0.9136,-0.9131,-0.916,-0.9086,-0.9084,-0.9118,-0.9122,-0.9125,-0.9229,0,0,0,0,0,0,-0.9495,-0.9485,-0.9497,-0.9426,-0.941,-0.9395,-0.9321,-0.9305,-0.9286,-0.9277,-0.9211,-0.9197,-0.9143,-0.9135,-0.9129,-0.9155,-0.9083,-0.9116,-0.912,-0.9124,-0.9223,-0.9236,-0.9247,0,0,0,0,0,-0.95,-0.953,-0.9498,-0.9489,-0.9423,-0.9397,-0.9388,-0.9325,-0.9289,-0.93,-0.9251,-0.92,-0.9157,-0.9136,-0.9128,-0.9154,-0.9114,-0.9119,-0.9124,-0.9218,-0.9233,-0.9247,0,0,0,0,0,0,-0.9608,-0.952,-0.9483,-0.9491,-0.9453,-0.9379,-0.9391,-0.9343,-0.9314,-0.9306,-0.9229,-0.9215,-0.9219,-0.9185,-0.9163,-0.918,-0.9128,-0.9132,-0.9202,-0.9216,-0.9228,-0.9237,-0.9081,0,0,0,0,0,-0.9632,-0.9619,-0.9543,-0.9558,-0.954,-0.9469,-0.9455,-0.941,-0.9366,-0.9349,-0.9301,-0.9261,-0.9238,-0.9225,-0.92,-0.9217,-0.9201,-0.9231,-0.9243,-0.9253,-0.9258,-0.9263,-0.9276,-0.9143,-0.9143,-0.9143,0,0,-0.9684,-0.9634,-0.963,-0.9578,-0.9543,-0.953,-0.9456,-0.9446,-0.9436,-0.9348,-0.9341,-0.9303,-0.9253,-0.926,-0.926,-0.9232,-0.929,-0.9259,-0.9268,-0.9267,-0.927,-0.9283,-0.9294,-0.9146,-0.9145,-0.9145,0,0,-0.9771,-0.9732,-0.974,-0.9705,-0.9652,-0.9604,-0.9606,-0.9539,-0.9511,-0.9502,-0.9435,-0.9422,-0.9385,-0.9351,-0.933,-0.9402,-0.9354,-0.9396,-0.9459,-0.9466,-0.9476,-0.9485,-0.9512,-0.9522,-0.9401,-0.9401,-0.9401,0,-0.9842,-0.982,-0.975,-0.9744,-0.9723,-0.9641,-0.9649,-0.9619,-0.956,-0.9548,-0.9517,-0.9467,-0.9428,-0.9425,-0.9443,-0.9428,-0.9427,-0.9405,-0.948,-0.9489,-0.9496,-0.952,-0.953,-0.9407,-0.9406,-0.9405,-0.9405,0,-0.991,-0.9896,-0.9909,-0.9854,-0.9834,-0.9835,-0.9765,-0.9753,-0.9708,-0.9663,-0.9655,-0.9604,-0.9567,-0.9563,-0.9519,-0.9553,-0.9538,-0.9495,-0.9441,-0.9515,-0.9537,-0.9546,-0.9415,-0.9413,-0.9411,-0.941,0,0,-1.0065,-0.997,-0.9976,-0.9949,-0.9883,-0.9871,-0.9868,-0.9831,-0.9822,-0.9784,-0.9779,-0.9749,-0.9708,-0.9683,-0.9635,-0.9641,-0.9701,-0.9596,-0.9594,-0.9619,-0.9736,-0.977,-0.9782,-0.9668,-0.9669,-0.967,-0.974,0,-1.0142,-1.0131,-1.0067,-1.0075,-1.0061,-0.9982,-0.9978,-0.9938,-0.9895,-0.9877,-0.9829,-0.9809,-0.9757,-0.9741,-0.9743,-0.9694,-0.9724,-0.9688,-0.9663,-0.9663,-0.968,-0.9793,-0.9829,-0.9898,-0.9748,-0.975,-0.975,0,-1.0231,-1.0197,-1.0204,-1.0137,-1.0128,-1.0127,-1.0087,-1.0071,-1.0022,-0.9991,-0.9963,-0.9908,-0.9899,-0.9847,-0.9834,-0.9811,-0.9796,-0.977,-0.9771,-0.9768,-0.9713,-0.9794,-0.9918,-0.9929,-0.9763,-0.9762,-0.9761,0,-1.0344,-1.03,-1.0298,-1.0278,-1.02,-1.0201,-1.0168,-1.0117,-1.0099,-1.0064,-1.0051,-1.0016,-0.9997,-0.9971,-0.9908,-0.9876,-0.9902,-0.9845,-0.9876,-0.9878,-0.9887,-0.9887,-1.0012,-0.9875,-0.9875,-0.9875,-0.9875,0,-1.0438,-1.0445,-1.0348,-1.0348,-1.0353,-1.0278,-1.0286,-1.0245,-1.02,-1.019,-1.0118,-1.011,-1.0026,-1.0008,-0.9958,-0.9955,-0.9947,-0.9921,-0.9908,-0.9929,-0.9932,-0.992,-0.9914,-0.9877,-0.9877,-0.9876,-0.9876,0,-1.0567,-1.0502,-1.0495,-1.042,-1.0402,-1.0409,-1.0345,-1.0341,-1.0293,-1.0281,-1.0273,-1.0199,-1.0173,-1.0107,-1.0065,-1.0031,-1.0042,-1.0017,-1.0059,-1.0051,-1.0086,-1.0084,-1.0208,-1.0221,-1.0075,-1.0077,-1.0078,0,-1.0632,-1.0635,-1.0561,-1.0548,-1.0519,-1.05,-1.048,-1.0406,-1.0389,-1.0332,-1.0335,-1.0304,-1.0275,-1.0239,-1.0181,-1.0147,-1.0122,-1.0167,-1.0116,-1.0137,-1.0124,-1.0125,-1.0125,-1.0179,-1.0181,-1.0183,-1.0184,0,-1.0754,-1.0721,-1.0696,-1.0659,-1.0638,-1.0605,-1.0569,-1.0563,-1.0479,-1.0463,-1.0436,-1.0414,-1.037,-1.034,-1.0298,-1.0263,-1.0211,-1.02,-1.0206,-1.0228,-1.0252,-1.024,-1.0091,-1.0198,-1.0197,-1.0196,-1.0195,-1.0195,-1.0853,-1.0852,-1.08,-1.0774,-1.0738,-1.0705,-1.0698,-1.0648,-1.0624,-1.0583,-1.054,-1.0518,-1.0467,-1.0404,-1.0373,-1.0354,-1.0327,-1.0335,-1.0337,-1.0341,-1.035,-1.0254,-1.0346,-1.0346,-1.0345,-1.0345,-1.0344,0,-1.0973,-1.0934,-1.0911,-1.0862,-1.0841,-1.0791,-1.0748,-1.0734,-1.0715,-1.0672,-1.0645,-1.0614,-1.0584,-1.0522,-1.0487,-1.0483,-1.0458,-1.0477,-1.0477,-1.047,-1.0377,-1.0376,-1.0498,-1.0498,-1.0498,-1.0498,-1.0498,-1.0498,-1.1033,-1.1029,-1.099,-1.0967,-1.0928,-1.0906,-1.0885,-1.0854,-1.082,-1.0788,-1.0763,-1.0722,-1.0672,-1.0631,-1.0601,-1.0584,-1.0575,-1.0602,-1.0577,-1.0491,-1.0477,-1.0463,-1.0462,-1.06,-1.06,-1.0672,-1.0672,-1.0673]},{"header":{"parameterUnit":"m.s-1","parameterCategory":1,"la1":30.2991,"la2":30.254,"lo1":-89.0895,"lo2":-89.0444,"dy":0.0017,"dx":0.0017,"nx":28,"ny":28,"refTime":"2025-06-15T09:00:00:Z","depth":0,"parameterNumber":3,"parameterNumberName":"V-component_of_WINDS"},"data":[0,0,0,0,0,0,0,0,0,0,0,0,0,0,0,0,0,0,0,0,0,0,0,0,0,0,0,0,0,0,0,0,0,0,0,0,0,0,0,0,0,0,0,0,0,0,0,0,0,0,0,0,0,0,0,0,0,0,-1.1252,-1.1253,0,-1.1392,-1.1394,-1.1395,-1.1502,-1.1503,-1.1504,-1.1505,-1.1649,-1.1651,-1.1654,0,0,0,0,0,0,0,0,0,0,0,0,0,-1.1076,-1.1078,-1.1252,-1.1253,-1.1255,-1.1392,-1.1394,-1.1396,-1.1502,-1.1503,-1.1504,-1.1505,-1.1648,-1.1651,-1.1655,0,0,0,0,0,0,0,0,0,0,0,0,0,-1.1178,-1.1079,-1.1251,-1.1325,-1.1333,-1.1392,-1.1394,-1.1396,-1.1502,-1.1503,-1.1505,-1.1506,-1.1646,-1.1651,-1.1655,-1.1652,0,0,-1.1668,-1.167,0,0,0,0,0,0,0,0,-1.1172,-1.1184,-1.1312,-1.132,-1.1329,-1.1431,-1.1385,-1.1482,-1.1501,-1.1437,-1.1505,-1.1507,-1.1575,-1.1585,-1.1608,-1.1659,-1.1665,-1.1669,-1.1671,-1.1673,-1.1674,0,0,0,0,0,0,0,-1.1165,-1.1179,-1.1307,-1.1314,-1.1324,-1.1351,-1.1367,-1.1404,-1.1496,-1.1443,-1.1451,-1.1466,-1.158,-1.1604,-1.1613,-1.1667,-1.1669,-1.1672,-1.1675,-1.1677,-1.1722,-1.1721,0,0,0,0,0,0,-1.1146,-1.1172,-1.1303,-1.1312,-1.1252,-1.1353,-1.1371,-1.1397,-1.1496,-1.1513,-1.1465,-1.1471,-1.1596,-1.1607,-1.1618,-1.162,-1.1673,-1.1677,-1.168,-1.1724,-1.1722,-1.172,0,0,0,0,0,0,-1.1142,-1.1157,-1.1297,-1.1244,-1.1264,-1.1354,-1.1383,-1.1399,-1.1423,-1.1513,-1.153,-1.1472,-1.1597,-1.1612,-1.1643,-1.1627,-1.1679,-1.1683,-1.1725,-1.1723,-1.1721,-1.1625,0,0,0,0,0,0,-1.1136,-1.1155,-1.1154,-1.1243,-1.1266,-1.1319,-1.1382,-1.14,-1.143,-1.1439,-1.1524,-1.154,-1.16,-1.1636,-1.1647,-1.1634,-1.1687,-1.1727,-1.1724,-1.1722,-1.163,-1.162,-1.1611,0,0,0,0,0,-1.113,-1.1122,-1.1154,-1.1169,-1.1268,-1.1318,-1.1331,-1.14,-1.1429,-1.1429,-1.1487,-1.1537,-1.1627,-1.1638,-1.1652,-1.1639,-1.1728,-1.1725,-1.1722,-1.1634,-1.1622,-1.1612,0,0,0,0,0,0,-1.1028,-1.1135,-1.1171,-1.1192,-1.1245,-1.1336,-1.1338,-1.1385,-1.1432,-1.1438,-1.1522,-1.1541,-1.1562,-1.1605,-1.1615,-1.1642,-1.1684,-1.1684,-1.1613,-1.1602,-1.1593,-1.1581,-1.169,0,0,0,0,0,-1.1009,-1.104,-1.1132,-1.1141,-1.1166,-1.1247,-1.1272,-1.1321,-1.1379,-1.1402,-1.1462,-1.1517,-1.1558,-1.1583,-1.1625,-1.1638,-1.1657,-1.1636,-1.1627,-1.1619,-1.1616,-1.1625,-1.1616,-1.171,-1.171,-1.171,0,0,-1.0968,-1.103,-1.1045,-1.1122,-1.1169,-1.12,-1.1265,-1.1296,-1.1319,-1.1407,-1.1439,-1.1485,-1.1552,-1.1573,-1.1586,-1.1609,-1.1595,-1.1615,-1.1607,-1.161,-1.1621,-1.1612,-1.1604,-1.1708,-1.1708,-1.1709,0,0,-1.0908,-1.0959,-1.0972,-1.1017,-1.1088,-1.1142,-1.1145,-1.1229,-1.1263,-1.1297,-1.1363,-1.1393,-1.1462,-1.1506,-1.1538,-1.1496,-1.1543,-1.1508,-1.1458,-1.1465,-1.1458,-1.1451,-1.1435,-1.1428,-1.1506,-1.1505,-1.1505,0,-1.0848,-1.0897,-1.0972,-1.0998,-1.103,-1.1111,-1.1124,-1.1166,-1.1246,-1.1266,-1.1292,-1.1379,-1.143,-1.1462,-1.1452,-1.1476,-1.1481,-1.1497,-1.1453,-1.1447,-1.1443,-1.1427,-1.1421,-1.15,-1.1501,-1.1502,-1.1502,0,-1.0819,-1.0852,-1.0854,-1.0929,-1.0961,-1.0981,-1.1059,-1.1083,-1.1129,-1.1181,-1.1214,-1.1278,-1.1335,-1.1347,-1.1393,-1.1385,-1.1398,-1.1437,-1.1481,-1.1427,-1.1414,-1.1409,-1.1493,-1.1495,-1.1497,-1.1498,0,0,-1.0697,-1.0814,-1.0813,-1.0848,-1.0932,-1.0959,-1.0983,-1.1038,-1.1056,-1.111,-1.113,-1.1187,-1.1224,-1.126,-1.1312,-1.1318,-1.1279,-1.1357,-1.136,-1.1338,-1.1273,-1.1241,-1.1233,-1.1312,-1.1312,-1.1311,-1.1267,0,-1.0649,-1.0694,-1.0763,-1.0785,-1.0816,-1.0895,-1.0915,-1.0969,-1.1018,-1.1051,-1.1107,-1.1144,-1.1191,-1.1213,-1.1224,-1.1281,-1.1267,-1.1286,-1.1331,-1.1332,-1.1309,-1.1227,-1.1193,-1.1148,-1.1263,-1.1262,-1.1262,0,-1.0598,-1.0646,-1.0671,-1.0753,-1.0768,-1.0785,-1.0841,-1.0873,-1.0935,-1.0971,-1.1011,-1.1067,-1.1096,-1.1137,-1.1177,-1.1188,-1.1212,-1.1243,-1.1243,-1.1248,-1.1291,-1.1227,-1.1136,-1.1128,-1.1255,-1.1255,-1.1256,0,-1.0504,-1.0576,-1.06,-1.0627,-1.0723,-1.0733,-1.0774,-1.0838,-1.0867,-1.0916,-1.0936,-1.0988,-1.1016,-1.1055,-1.1124,-1.1148,-1.1156,-1.1203,-1.1185,-1.1183,-1.1181,-1.1179,-1.1089,-1.12,-1.12,-1.12,-1.12,0,-1.0441,-1.0452,-1.0558,-1.0573,-1.0588,-1.0668,-1.0681,-1.073,-1.0786,-1.0811,-1.0884,-1.0906,-1.0997,-1.103,-1.1085,-1.1108,-1.1121,-1.115,-1.1164,-1.1142,-1.1138,-1.1156,-1.116,-1.1198,-1.1199,-1.1199,-1.1199,0,-1.0337,-1.0408,-1.0439,-1.0528,-1.0551,-1.0558,-1.0634,-1.0651,-1.0705,-1.0736,-1.0748,-1.0833,-1.0875,-1.0949,-1.1013,-1.105,-1.1062,-1.1087,-1.104,-1.1048,-1.1024,-1.1024,-1.0941,-1.0933,-1.105,-1.1049,-1.1048,0,-1.029,-1.0301,-1.0391,-1.0413,-1.045,-1.0485,-1.0515,-1.0595,-1.0622,-1.0695,-1.0703,-1.0751,-1.0794,-1.0858,-1.0925,-1.0974,-1.1,-1.0967,-1.1008,-1.0985,-1.0997,-1.0994,-1.0995,-1.0957,-1.0955,-1.0954,-1.0953,0,-1.02,-1.0235,-1.0274,-1.0326,-1.036,-1.0405,-1.0453,-1.0467,-1.0558,-1.0586,-1.063,-1.0663,-1.0728,-1.0775,-1.0834,-1.0876,-1.0928,-1.094,-1.0938,-1.0914,-1.0885,-1.0898,-1.1012,-1.0941,-1.0942,-1.0943,-1.0943,-1.0944,-1.0122,-1.0134,-1.0199,-1.0241,-1.0286,-1.033,-1.035,-1.0407,-1.0445,-1.0504,-1.0549,-1.0589,-1.0653,-1.0737,-1.0777,-1.081,-1.0834,-1.0831,-1.083,-1.0828,-1.0818,-1.0882,-1.0821,-1.0822,-1.0822,-1.0822,-1.0823,0,-1.0032,-1.0078,-1.0116,-1.0182,-1.0214,-1.0263,-1.0319,-1.0343,-1.0378,-1.0432,-1.0473,-1.0523,-1.0569,-1.064,-1.0692,-1.0704,-1.073,-1.0715,-1.0713,-1.0722,-1.0795,-1.079,-1.0693,-1.0693,-1.0693,-1.0693,-1.0693,-1.0693,-0.999,-1.0013,-1.0056,-1.0103,-1.0149,-1.0189,-1.0217,-1.0258,-1.0301,-1.0354,-1.0392,-1.0439,-1.05,-1.0557,-1.0601,-1.0621,-1.0635,-1.0612,-1.0639,-1.0705,-1.0717,-1.0728,-1.0724,-1.0615,-1.0615,-1.0564,-1.0563,-1.0563]}]]